Regional Weather Roundup
Issued by NWS

Home | Current Version | Previous Version | Graphics & Text | Print | Product List | Glossary On
Versions: 1 2 3 4 5 6 7 8 9 10 11 12 13 14 15 16 17 18 19 20 21 22 23 24 25 26 27 28 29 30 31 32 33 34 35 36 37 38 39 40 41 42 43 44 45 46 47 48 49 50
226
ASUS43 KTOP 272059
RWRKS

WEATHER ROUNDUP FOR KANSAS
NATIONAL WEATHER SERVICE GOODLAND KS
400 PM CDT SAT AUG 27 2016

NOTE:  "FAIR" INDICATES FEW OR NO CLOUDS BELOW 12,000 FEET WITH NO
SIGNIFICANT WEATHER AND/OR OBSTRUCTIONS TO VISIBILITY.

KSZ001>006-013>018-027>032-041>047-272200-
NORTHWEST KANSAS

CITY           SKY/WX    TMP DP  RH WIND       PRES   REMARKS
GOODLAND       SUNNY     82  56  40 SE8       30.03F
HAYS           MOSUNNY   84  64  51 SE14      29.98F
HILL CITY      SUNNY     84  66  54 SE12      29.99F
RUSSELL        MOSUNNY   84  66  54 SE12      29.98F
$$

KSZ061>065-074>080-084>089-272200-
SOUTHWEST KANSAS

CITY           SKY/WX    TMP DP  RH WIND       PRES   REMARKS
DODGE CITY     SUNNY     87  64  46 S15G21    29.99F
ELKHART          N/A     89  59  36 S14         N/A
GARDEN CITY    SUNNY     87  60  40 S14G21    29.98F
GREAT BEND     PTSUNNY   86  64  48 SE12G21   29.98F
LIBERAL        CLOUDY    81  63  54 S17       30.02R
$$

KSZ066>073-081>083-090>101-272200-
SOUTHEAST KANSAS

CITY           SKY/WX    TMP DP  RH WIND       PRES   REMARKS
CHANUTE        MOSUNNY   90  71  53 S5        29.98F HX  96
COFFEYVILLE    SUNNY     93  70  46 S8        29.97F HX  99
HUTCHINSON     SUNNY     88  69  53 SE12      29.98F
MEDICINE LODGE   N/A     88  65  46 SE8       29.95F
NEWTON         MOSUNNY   86  71  60 SW6       30.00F
PARSONS        SUNNY     89  69  51 SW7       29.99F
WICHITA INTL   MOSUNNY   88  68  51 SE5       29.97F
WICHITA JABRA  MOSUNNY   87  70  56 S10       29.98F
WINFIELD       SUNNY     88  71  57 S8        29.99F
$$

KSZ007>012-019>026-033>040-048>060-102>105-272200-
NORTHEAST KANSAS

CITY           SKY/WX    TMP DP  RH WIND       PRES   REMARKS
CONCORDIA      SUNNY     83  66  56 SE8       30.00F
EMPORIA        MOSUNNY   86  71  60 S8        29.99F
LAWRENCE       PTSUNNY   86  73  65 CALM      29.99F
MANHATTAN      MOSUNNY   85  71  63 E3        29.99F
OLATHE IND     PTSUNNY   85  73  67 S7        30.01F
OLATHE EXE     SUNNY     86  72  62 S8        30.01F
SALINA         MOSUNNY   87  68  52 E5        29.99F
TOPEKA BILLARD MOSUNNY   86  70  58 VRB3      29.99F
TOPEKA FORBES  MOSUNNY   87  72  60 SW6       30.00F
$$




USA.gov is the U.S. government's official web portal to all federal, state and local government web resources and services.